Weather Roundup
Issued by NWS Springfield, MO

Home | Current Version | Previous Version | Text Only | Print | Product List | Glossary On
Versions: 1 2 3 4 5 6 7 8 9 10 11 12 13 14 15 16 17 18 19 20 21 22 23 24 25 26 27 28 29 30 31 32 33 34 35 36 37 38 39 40 41 42 43 44 45 46 47 48 49 50
000
NZUS99 KSGF 260107
HRRSGF

HOURLY WEATHER
NATIONAL WEATHER SERVICE SPRINGFIELD MO
800 PM CDT FRI JUL 25 2014

......SGF CWA......

CITY           SKY/WX    TMP DP  RH WIND       PRES   REMARKS
SPRINGFIELD    CLEAR     86  68  54 S12       29.90S
JOPLIN         CLEAR     86  70  58 S14G25    29.89S HX  90
WEST PLAINS    PTCLDY    80  67  64 S9        29.96S
ROLLA          CLEAR     81  67  62 S15       29.88S
OSAGE BEACH    PTCLDY    86  70  58 S9        29.86R HX  90
BRANSON        PTCLDY    86  72  62 S6        29.96S HX  92

......SURROUNDING SGF CWA......

CITY           SKY/WX    TMP DP  RH WIND       PRES   REMARKS
CHANUTE        CLEAR     87  73  62 S16       29.84F HX  94
PARSONS        PTCLDY    87  74  64 S12G20    29.86F HX  95
COFFEYVILLE    PTCLDY    88  75  65 S15       29.85F HX  97
EMPORIA        PTCLDY    91  72  53 S17       29.79F HX  98
GROVE OK       CLEAR     86  72  62 S6        29.91S HX  92
ROGERS AR      CLEAR     84  70  62 S8        29.96S
SILOAM SPRINGS CLEAR     84  68  58 S9        29.96R
HARRISON AR    CLEAR     80  71  74 S8        29.97S
NEAR YELLVILLE CLEAR     82  72  69 S6        29.94F

......KANSAS AND MISSOURI......

CITY           SKY/WX    TMP DP  RH WIND       PRES   REMARKS
KANSAS CTY INT MOCLDY    89  72  56 S17G23    29.77R HX  96
DOWNTOWN KC    MOCLDY    92  72  51 S15G25    29.76R HX  99
COLUMBIA       CLEAR     85  72  65 S14       29.82S HX  91
SEDALIA        CLEAR     89  69  51 SW14      29.82S HX  93
ST JOSEPH      CLEAR     90  75  61 S10       29.73S HX 100
ST LOUIS       MOCLDY    80  63  55 S9        29.87S
SPIRIT OF STL  PTCLDY    79  65  62 S6        29.84F
KIRKSVILLE     PTCLDY    76  70  82 E6        29.83R
WICHITA        PTCLDY    96  60  30 S17G24    29.78R HX  96
TOPEKA         PTCLDY    95  71  45 S17G25    29.75S HX 102
OLATHE         MOCLDY    88  73  61 S12       29.79F HX  95

......TENNESSEE......

CITY           SKY/WX    TMP DP  RH WIND       PRES   REMARKS
MEMPHIS        MOCLDY    82  64  54 S7        29.97F
NASHVILLE      MOCLDY    78  60  53 SW6       29.96F

......ARKANSAS.......

CITY           SKY/WX    TMP DP  RH WIND       PRES   REMARKS
FAYETTEVILLE   CLEAR     82  72  71 S9        29.96F
FT SMITH       CLEAR     88  73  61 SE6       29.92S HX  95
LITTLE ROCK    PTCLDY    83  71  67 S5        29.96S

......OKLAHOMA.......

CITY           SKY/WX    TMP DP  RH WIND       PRES   REMARKS
TULSA          CLEAR     91  72  53 S14G24    29.85R HX  98
PONCA CITY     CLEAR     93  70  46 S14G24    29.81S HX  99
MCALESTER      CLEAR     87  73  62 SE6       29.93S HX  94
OKLAHOMA CITY  PTCLDY    93  58  30 S13G22    29.86S HX  92

......IOWA............

CITY           SKY/WX    TMP DP  RH WIND       PRES   REMARKS
DES MOINES     MOCLDY    81  71  71 E6        29.77F
QUAD CITIES    CLOUDY    72  63  73 SE7       29.88S

......ILLINOIS........

CITY           SKY/WX    TMP DP  RH WIND       PRES   REMARKS
QUINCY         CLEAR     74  65  73 E7        29.85S
CHICAGO        PTCLDY    71  57  61 SW9       29.92S



USA.gov is the U.S. government's official web portal to all federal, state and local government web resources and services.